Content
SEND FEEDBACK

Daily
Averages
Monthly
Summary
United States of America

SALEM, SOUTH CAROLINA


Home > North America > United States > South Carolina
Elevation: 108 feet     Latitude: 34 54N     Longitude: 082 59W

WEATHER
 
SELECT A DAY
Number of Records: 171,345;   Date Range: 3/17/00 - 7/26/14
 
SHARE

PRINT THIS DATA

[ ← Previous Day ]
WEATHER ALMANAC - JANUARY 31, 2013
[ Next Day → ]
[ °C ]   °F
Weather ElementAverageHighLow
Temperature43.9 °F50 °F (2:54 pm)37.9 °F (7:54 am)
Dewpoint22.6 °F39.2 °F (1:07 am)16 °F (2:54 pm)
Humidity45 %73 % (2:54 am)26 % (2:54 pm)
Barometer29.96 in30.11 in (9:54 pm)29.69 in (1:07 am)
Wind Speed15.1 mph27.6 mph (4:54 am)
Wind Gust38 mph (4:54 am)
Weather ElementAverage
Visibility10 mi
Wind DirectionWSW (254.6 °)

Weather ElementTotal
Precipitation0.03 in
Heating Degree Days21.1 (Base 65)
Averaged from 24 records on January 31, 2013
WEATHER CONDITIONS BREAKOUT
WIND DIRECTION BREAKOUT
WEATHER BY HOUR - JANUARY 31, 2013
[ °C ]   °F
Local TimeTemperatureDewpointHumidityBarometerVisibilityWind DirectionWind SpeedGust SpeedPrecipitationEventsConditions
1:07 AM48.2 °F39.2 °F71 %29.69 in10.0 miWNW (290°)12.7 mph29.9 mph0.00 inRainLight Rain
1:54 AM45.0 °F36.0 °F71 %29.72 in10.0 miWest (270°)18.4 mph27.6 mph0.01 inOvercast
2:06 AM44.6 °F35.6 °F71 %29.74 in10.0 miWSW (250°)17.3 mph31.1 mph0.00 inRainLight Rain
2:54 AM42.1 °F34.0 °F73 %29.76 in10.0 miWNW (290°)16.1 mph21.9 mph0.01 inRainLight Rain
3:54 AM41.0 °F27.0 °F57 %29.81 in10.0 miWest (280°)20.7 mph28.8 mph0.00 inClear
4:54 AM39.0 °F21.9 °F50 %29.83 in10.0 miWest (270°)27.6 mph38.0 mph0.01 inClear
5:54 AM39.0 °F21.0 °F49 %29.87 in10.0 miWest (270°)23.0 mph33.4 mphClear
7:54 AM37.9 °F19.0 °F47 %29.95 in10.0 miWNW (290°)11.5 mph24.2 mphClear
8:54 AM39.0 °F21.9 °F50 %29.98 in10.0 miWSW (250°)8.1 mphClear
9:54 AM41.0 °F19.9 °F43 %29.99 in10.0 miWest (270°)21.9 mph34.5 mphClear
10:54 AM43.0 °F19.9 °F40 %30.01 in10.0 miWest (270°)12.7 mph25.3 mphClear
11:54 AM46.9 °F19.9 °F34 %30.00 in10.0 miWest (280°)20.7 mph29.9 mphClear
12:54 PM48.0 °F18.0 °F30 %30.00 in10.0 miWest (260°)12.7 mph24.2 mphClear
1:54 PM48.9 °F17.1 °F28 %29.99 in10.0 miWest (270°)23.0 mph35.7 mphClear
2:54 PM50.0 °F16.0 °F26 %30.01 in10.0 miWest (280°)25.3 mph35.7 mphClear
3:54 PM50.0 °F17.1 °F27 %30.03 in10.0 miWest (260°)17.3 mph26.5 mphClear
4:54 PM48.9 °F17.1 °F28 %30.03 in10.0 miWest (270°)19.6 mph27.6 mphClear
5:54 PM46.9 °F17.1 °F30 %30.04 in10.0 miWest (280°)15.0 mph28.8 mphClear
6:54 PM44.1 °F19.0 °F37 %30.06 in10.0 miCalmClear
7:54 PM43.0 °F19.0 °F38 %30.08 in10.0 miWSW (240°)4.6 mphClear
8:54 PM43.0 °F19.9 °F40 %30.09 in10.0 miWSW (250°)9.2 mphClear
9:54 PM42.1 °F21.0 °F43 %30.11 in10.0 miWSW (250°)9.2 mphClear
10:54 PM41.0 °F21.9 °F47 %30.10 in10.0 miSW (230°)6.9 mphClear
11:54 PM41.0 °F23.0 °F49 %30.10 in10.0 miWSW (240°)9.2 mphClear
Hourly data recorded from KLQK, located miles away from Salem, South Carolina







STORIES FROM OUR PARTNERS